Flag for Denmark Weather past 2 weeks in Kolding, Denmark

41 °F

Quite cool.

Feels Like: 36 °F
Forecast: 36 / 40 °F
Wind: 8 mph from South

Location: Vamdrup

Current Time: Nov 25, 2015 at 6:03:34 AM

Latest Report: Nov 25, 2015 at 5:20 AM

Visibility: N/A

Pressure: 29.50 "Hg

Humidity: 100%

Dew point: 41 °F

Location of KoldingLocation

Historic Weather in Kolding — Graph


Kolding temperature yesterday

Maximum temperature yesterday: 43 °F (at 4:50 AM)
Minimum temperature yesterday: 39 °F (at 3:20 AM)
Average temperature yesterday: 40 °F

Past Weeks' High & Low Weather Summary

High59 °F (Nov 10, 10:20 AM)100% (Nov 11, 11:50 AM)30.12 "Hg (Nov 11, 11:50 AM)
Low19 °F (Nov 23, 6:20 AM)66% (Nov 13, 9:50 PM)29.09 "Hg (Nov 18, 3:50 AM)
Average45 °F89%29.67 "Hg
* Reported Nov 10 4:50 AM — Nov 25 4:20 AM, Kolding, Weather by CustomWeather, © 2015

Note: Actual official high and low records may vary slightly from our data, if they occured in-between our weather recording intervals... More about our weather records


Kolding weather history for previous 24 hours

Time TempWeatherWind HumidityBarometerVisibility
4:20 AM
Wed, Nov 25
43 °FQuite cool.10 mph93%29.50 "HgN/A
3:50 AM41 °FQuite cool.8 mph100%29.50 "HgN/A
3:20 AM41 °FQuite cool.8 mph100%29.50 "HgN/A
2:50 AM41 °FQuite cool.10 mph100%29.50 "HgN/A
2:20 AM41 °FQuite cool.12 mph93%29.53 "HgN/A
1:20 AM41 °FQuite cool.13 mph93%29.53 "HgN/A
12:50 AM41 °FQuite cool.14 mph93%29.53 "HgN/A
12:20 AM41 °FQuite cool.16 mph93%29.53 "HgN/A
11:50 PM
Tue, Nov 24
41 °FQuite cool.16 mph93%29.53 "HgN/A
11:20 PM41 °FQuite cool.16 mph93%29.56 "HgN/A
10:50 PM41 °FQuite cool.17 mph93%29.56 "HgN/A
10:20 PM41 °FQuite cool.21 mph93%29.56 "HgN/A
9:50 PM41 °FQuite cool.18 mph93%29.56 "HgN/A
9:20 PM39 °FChilly.20 mph100%29.56 "HgN/A
8:50 PM39 °FChilly.22 mph100%29.56 "HgN/A
8:20 PM39 °FChilly.22 mph100%29.59 "HgN/A
7:50 PM39 °FChilly.21 mph93%29.59 "HgN/A
7:20 PM39 °FChilly.20 mph93%29.59 "HgN/A
6:50 PM39 °FChilly.23 mph93%29.59 "HgN/A
6:20 PM39 °FChilly.20 mph93%29.62 "HgN/A
5:50 PM39 °FChilly.20 mph93%29.62 "HgN/A
5:20 PM39 °FChilly.23 mph93%29.62 "HgN/A
4:20 PM39 °FLight rain. Partly cloudy.21 mph93%29.65 "Hg3 mi
3:50 PM39 °FLight rain. Broken clouds.23 mph93%29.65 "HgN/A
3:20 PM39 °FLight rain. Broken clouds.26 mph93%29.65 "HgN/A
2:50 PM39 °FLight rain. Broken clouds.23 mph93%29.65 "Hg3 mi
2:20 PM39 °FLight rain. Partly sunny.24 mph93%29.68 "HgN/A
1:50 PM39 °FLight rain. Partly sunny.23 mph93%29.68 "Hg5 mi
1:20 PM39 °FLight rain. Partly sunny.24 mph93%29.71 "Hg2 mi
12:50 PM41 °FLight rain. Broken clouds.24 mph87%29.71 "Hg5 mi
12:20 PM39 °FLight rain. Partly sunny.21 mph93%29.71 "Hg4 mi
11:50 AM39 °FLight rain. Partly sunny.22 mph93%29.74 "Hg4 mi
11:20 AM39 °FLight rain. Partly sunny.22 mph93%29.74 "Hg4 mi
10:20 AM41 °FLight rain. Partly sunny.25 mph93%29.77 "Hg3 mi
9:50 AM41 °FLight rain. Partly sunny.22 mph93%29.80 "Hg3 mi
9:20 AM41 °FLight rain. Partly sunny.21 mph93%29.80 "Hg3 mi
8:50 AM41 °FLight rain. Partly sunny.18 mph93%29.80 "Hg3 mi
8:20 AM41 °FLight rain. Partly sunny.21 mph93%29.83 "Hg4 mi
7:50 AM41 °FQuite cool.20 mph93%29.83 "HgN/A
7:20 AM41 °FQuite cool.17 mph93%29.83 "HgN/A
6:50 AM41 °FQuite cool.18 mph93%29.83 "HgN/A
6:20 AM43 °FQuite cool.18 mph93%29.86 "HgN/A
Weather by CustomWeather, © 2015

See weather overviewHow to use our weather pages